WetterOnline ( https://www.wetteronline.de )

Wetter aktuell Rubihorn

Aktuelles Wetter: Oberstdorf (812m)

6-stündlich | Neueste Meldungen
Ortszeit Temperatur Wetter
Fr, 30.09. 20:00 9.2° C bedeckt
Fr, 30.09. 14:00 9.5° C leichter Regen
Fr, 30.09. 8:00 7.0° C bewölkt
Fr, 30.09. 2:00 7.2° C Regen
Do, 29.09. 20:00 7.4° C Sprühregen
Do, 29.09. 14:00 8.2° C leichter Regen
Do, 29.09. 8:00 5.6° C leichter Regen
Do, 29.09. 2:00 4.7° C bedeckt
Ortszeit Temperatur Wetter
Fr, 30.09. 23:30 8.1° C bedeckt
Fr, 30.09. 23:20 8.1° C bedeckt
Fr, 30.09. 23:10 8.1° C bedeckt
Fr, 30.09. 23:00 8.2° C bedeckt
Fr, 30.09. 22:50 8.2° C bedeckt
Fr, 30.09. 22:40 8.2° C bedeckt
Fr, 30.09. 22:30 8.1° C bedeckt
Fr, 30.09. 22:00 8.3° C Regen
Fr, 30.09. 21:30 8.3° C Sprühregen
Fr, 30.09. 21:00 8.4° C Sprühregen
Fr, 30.09. 20:30 8.9° C Sprühregen
Ortszeit Relative Feuchte Sichtweite
Fr, 30.09. 20:00 83% >70 km
Fr, 30.09. 14:00 82% 30 km
Fr, 30.09. 8:00 95% 9 km
Fr, 30.09. 2:00 95% 11 km
Do, 29.09. 20:00 97% 45 km
Do, 29.09. 14:00 84% >70 km
Do, 29.09. 8:00 97% 40 km
Do, 29.09. 2:00 97% 65 km
Ortszeit Relative Feuchte Sichtweite
Fr, 30.09. 23:30 96% 35 km
Fr, 30.09. 23:20 96% -
Fr, 30.09. 23:10 96% -
Fr, 30.09. 23:00 96% 25 km
Fr, 30.09. 22:50 96% -
Fr, 30.09. 22:40 96% -
Fr, 30.09. 22:30 95% 30 km
Fr, 30.09. 22:00 95% 27 km
Fr, 30.09. 21:30 93% 7 km
Fr, 30.09. 21:00 90% 6 km
Fr, 30.09. 20:30 85% 7 km
Ortszeit Niederschlagsmenge Niederschlagsart
Fr, 30.09. 20:00 0.1 l/m2 in 12 Std. Regen
Fr, 30.09. 14:00 0.1 l/m2 in 6 Std. Regen
Fr, 30.09. 8:00 0.8 l/m2 in 12 Std. -
Fr, 30.09. 2:00 0.8 l/m2 in 6 Std. Regen
Do, 29.09. 20:00 8 l/m2 in 12 Std. Regen
Do, 29.09. 14:00 3 l/m2 in 6 Std. Regen
Do, 29.09. 8:00 8 l/m2 in 12 Std. Regen
Do, 29.09. 2:00 7 l/m2 in 6 Std. Regen
Ortszeit Niederschlagsmenge Niederschlagsart
Fr, 30.09. 23:30 0.0 l/m2 in 1 Std. -
Fr, 30.09. 23:20 keine Meldung -
Fr, 30.09. 23:10 keine Meldung -
Fr, 30.09. 23:00 0.0 l/m2 in 1 Std. Regen
Fr, 30.09. 22:50 keine Meldung -
Fr, 30.09. 22:40 keine Meldung -
Fr, 30.09. 22:30 0.0 l/m2 in 1 Std. -
Fr, 30.09. 22:00 0.1 l/m2 in 1 Std. Sprühregen
Fr, 30.09. 21:30 <0.05 l/m2 in 1 Std. -
Fr, 30.09. 21:00 0.1 l/m2 in 1 Std. Regen
Fr, 30.09. 20:30 <0.05 l/m2 in 1 Std. -
Ortszeit Stärke Spitze Richtung
km/h Bft. km/h Grad Sektor
Fr, 30.09. 20:00 7 2 18 300° NW
Fr, 30.09. 14:00 4 1 11 20° N
Fr, 30.09. 8:00 4 1 14 330° NW
Fr, 30.09. 2:00 4 1 7 30° NO
Do, 29.09. 20:00 4 1 11 240° SW
Do, 29.09. 14:00 4 1 7 350° N
Do, 29.09. 8:00 4 1 11 230° SW
Do, 29.09. 2:00 4 1 14 160° S
Ortszeit Stärke Spitze Richtung
km/h Bft. km/h Grad Sektor
Fr, 30.09. 23:30 6 1 7 160° S
Fr, 30.09. 23:20 6 1 - 160° S
Fr, 30.09. 23:10 7 2 - 170° S
Fr, 30.09. 23:00 4 1 7 200° S
Fr, 30.09. 22:50 4 1 - 200° S
Fr, 30.09. 22:40 2 1 - 290° W
Fr, 30.09. 22:30 4 1 7 20° N
Fr, 30.09. 22:00 4 1 7 240° SW
Fr, 30.09. 21:30 0 0 7 - -
Fr, 30.09. 21:00 4 1 14 70° O
Fr, 30.09. 20:30 7 2 13 290° W
Ortszeit Untergrenze Bedeckung Gattung
total tief tief mittel hoch
Fr, 30.09. 20:00 450 m 8/8 8/8 - - -
Fr, 30.09. 14:00 300 m 5/8 5/8 - - -
Fr, 30.09. 8:00 120 m 7/8 7/8 - - -
Fr, 30.09. 2:00 150 m 8/8 8/8 - - -
Do, 29.09. 20:00 150 m 8/8 8/8 - - -
Do, 29.09. 14:00 240 m 8/8 8/8 - - -
Do, 29.09. 8:00 30 m 4/8 4/8 - - -
Do, 29.09. 2:00 90 m 8/8 8/8 - - -
Ortszeit Bedeckungsgrad in Achtel und Wolkenuntergrenze
Fr, 30.09. 23:30 7(870m) 8(1080m)
Fr, 30.09. 23:20 7(870m) 8(1080m)
Fr, 30.09. 23:10 8
Fr, 30.09. 23:00 8(750m) 8(1140m)
Fr, 30.09. 22:50 8(750m) 8(1140m)
Fr, 30.09. 22:40 8
Fr, 30.09. 22:30 7(660m) 8(1140m)
Fr, 30.09. 22:00 8(570m)
Fr, 30.09. 21:30 8(480m)
Fr, 30.09. 21:00 8(480m)
Fr, 30.09. 20:30 7(450m)
Ortszeit Stationsdruck (hPa) Tendenz (hPa in 3 Std.)
Fr, 30.09. 20:00 921 + 1,8
Fr, 30.09. 14:00 919 + 1,5
Fr, 30.09. 8:00 916 + 1,2
Fr, 30.09. 2:00 915 + 0,9
Do, 29.09. 20:00 912 + 1,2
Do, 29.09. 14:00 911 + 0,8
Do, 29.09. 8:00 909 - 0,3
Do, 29.09. 2:00 910 - 1,0
Ortszeit Stationsdruck (hPa) Tendenz (hPa in 3 Std.)
Fr, 30.09. 23:30 922 + 0,5
Fr, 30.09. 23:20 922 keine Meldung
Fr, 30.09. 23:10 922 keine Meldung
Fr, 30.09. 23:00 922 + 0,8
Fr, 30.09. 22:50 922 keine Meldung
Fr, 30.09. 22:40 922 keine Meldung
Fr, 30.09. 22:30 921 + 0,7
Fr, 30.09. 22:00 921 + 0,8
Fr, 30.09. 21:30 921 + 1,3
Fr, 30.09. 21:00 921 + 1,7
Fr, 30.09. 20:30 921 + 1,9
Ortszeit Schneehöhe (cm)
Fr, 30.09. 20:00 0
Fr, 30.09. 14:00 0
Fr, 30.09. 8:00 0
Fr, 30.09. 2:00 0
Do, 29.09. 20:00 0
Do, 29.09. 14:00 0
Do, 29.09. 8:00 0
Do, 29.09. 2:00 0
Ortszeit Schneehöhe (cm)
Fr, 30.09. 23:30 0
Fr, 30.09. 23:20 0
Fr, 30.09. 23:10 0
Fr, 30.09. 23:00 0
Fr, 30.09. 22:50 0
Fr, 30.09. 22:40 0
Fr, 30.09. 22:30 0
Fr, 30.09. 22:00 0
Fr, 30.09. 21:30 0
Fr, 30.09. 21:00 0
Fr, 30.09. 20:30 0
Link zu dieser Seite / Seite empfehlen

Das Wetter in ...